| time (UTC) | temp F | wind direction | speed MPH | gust MPH | rain 1hr in | rain 24hr in | rain mn in | humidity % | barometer mb |
| 20260906195556 | 91 | 181 | 12.0 | 18.0 | 0.00 | 0.01 | 0.00 | 32 | |
| 20260906194515 | 91 | 181 | 12.0 | 24.0 | 0.00 | 0.01 | 0.00 | 32 | |
| 20260906193517 | 91 | 181 | 8.0 | 17.0 | 0.00 | 0.01 | 0.00 | 35 | |
| 20260906192516 | 91 | 181 | 5.0 | 11.0 | 0.00 | 0.01 | 0.00 | 39 | |
| 20260906191515 | 90 | 181 | 7.0 | 14.0 | 0.00 | 0.01 | 0.00 | 41 | |
| 20260906190515 | 89 | 181 | 4.0 | 10.0 | 0.00 | 0.01 | 0.00 | 43 | |
| 20260906185535 | 89 | 181 | 6.0 | 13.0 | 0.00 | 0.01 | 0.00 | 43 | |
| 20260906184516 | 88 | 181 | 3.0 | 10.0 | 0.00 | 0.01 | 0.00 | 44 | |
| 20260906183515 | 87 | 181 | 6.0 | 10.0 | 0.00 | 0.01 | 0.00 | 46 | |
| 20260906182515 | 86 | 181 | 6.0 | 11.0 | 0.00 | 0.01 | 0.00 | 48 | |
| 20260906181515 | 86 | 181 | 6.0 | 13.0 | 0.00 | 0.01 | 0.00 | 47 | |
| 20260906180515 | 85 | 181 | 7.0 | 14.0 | 0.00 | 0.01 | 0.00 | 48 | |
| 20260906175516 | 85 | 181 | 6.0 | 12.0 | 0.00 | 0.01 | 0.00 | 49 | |
| 20260906174515 | 85 | 181 | 5.0 | 10.0 | 0.00 | 0.01 | 0.00 | 50 | |
| 20260906173515 | 84 | 181 | 7.0 | 12.0 | 0.00 | 0.01 | 0.00 | 51 | |
| 20260906172516 | 84 | 181 | 7.0 | 12.0 | 0.00 | 0.01 | 0.00 | 51 | |
| 20260906171515 | 85 | 181 | 5.0 | 10.0 | 0.00 | 0.01 | 0.00 | 50 | |
| 20260906170536 | 85 | 181 | 6.0 | 10.0 | 0.00 | 0.01 | 0.00 | 51 | |
| 20260906165515 | 85 | 181 | 10.0 | 15.0 | 0.00 | 0.01 | 0.00 | 51 | |
| 20260906164536 | 83 | 181 | 9.0 | 17.0 | 0.00 | 0.01 | 0.00 | 55 | |
| 20260906163515 | 83 | 181 | 9.0 | 16.0 | 0.00 | 0.01 | 0.00 | 55 | |
| 20260906162515 | 82 | 181 | 9.0 | 15.0 | 0.00 | 0.01 | 0.00 | 56 | |
| 20260906161515 | 83 | 181 | 9.0 | 13.0 | 0.00 | 0.01 | 0.00 | 56 | |
| 20260906160515 | 82 | 181 | 7.0 | 14.0 | 0.00 | 0.01 | 0.00 | 58 | |
| 20260906155515 | 81 | 181 | 9.0 | 16.0 | 0.00 | 0.01 | 0.00 | 60 | |
| 20260906154515 | 80 | 181 | 9.0 | 14.0 | 0.00 | 0.01 | 0.00 | 62 | |
| 20260906153515 | 79 | 181 | 9.0 | 17.0 | 0.00 | 0.01 | 0.00 | 64 | |
| 20260906152515 | 79 | 181 | 10.0 | 14.0 | 0.00 | 0.01 | 0.00 | 64 | |
| 20260906151617 | 78 | 181 | 9.0 | 15.0 | 0.00 | 0.01 | 0.00 | 65 | |
| 20260906150515 | 77 | 181 | 9.0 | 15.0 | 0.00 | 0.01 | 0.00 | 69 | |
| 20260906145515 | 77 | 181 | 8.0 | 14.0 | 0.00 | 0.01 | 0.00 | 68 | |
| 20260906144516 | 76 | 181 | 8.0 | 14.0 | 0.00 | 0.01 | 0.00 | 68 | |
| 20260906143515 | 76 | 181 | 6.0 | 14.0 | 0.00 | 0.01 | 0.00 | 69 | |
| 20260906142515 | 76 | 181 | 5.0 | 11.0 | 0.00 | 0.01 | 0.00 | 68 | |
| 20260906141516 | 75 | 181 | 4.0 | 7.0 | 0.00 | 0.01 | 0.00 | 67 | |
| 20260906140515 | 75 | 181 | 5.0 | 9.0 | 0.00 | 0.01 | 0.00 | 68 | |
| 20260906135535 | 75 | 181 | 10.0 | 15.0 | 0.00 | 0.01 | 0.00 | 69 | |
| 20260906134535 | 77 | 181 | 11.0 | 27.0 | 0.00 | 0.01 | 0.00 | 62 | |
| 20260906133515 | 77 | 0.0 | 0.0 | 0.00 | 0.01 | 0.00 | 61 | ||
| 20260906132515 | 75 | 181 | 1.0 | 3.0 | 0.00 | 0.01 | 0.00 | 63 | |
| 20260906131516 | 74 | 181 | 0.0 | 3.0 | 0.00 | 0.01 | 0.00 | 65 | |
| 20260906130515 | 74 | 181 | 2.0 | 5.0 | 0.00 | 0.01 | 0.00 | 66 | |
| 20260906125518 | 74 | 181 | 3.0 | 5.0 | 0.00 | 0.01 | 0.00 | 66 | |
| 20260906124515 | 73 | 181 | 3.0 | 6.0 | 0.00 | 0.01 | 0.00 | 67 | |
| 20260906123537 | 73 | 181 | 5.0 | 7.0 | 0.00 | 0.01 | 0.00 | 69 | |
| 20260906122515 | 72 | 181 | 4.0 | 6.0 | 0.00 | 0.01 | 0.00 | 70 | |
| 20260906121515 | 73 | 181 | 2.0 | 5.0 | 0.00 | 0.01 | 0.00 | 69 | |
| 20260906120516 | 73 | 181 | 2.0 | 4.0 | 0.00 | 0.01 | 0.00 | 68 | |
| 20260906115515 | 74 | 181 | 3.0 | 6.0 | 0.00 | 0.01 | 0.00 | 68 | |
| 20260906114515 | 74 | 181 | 5.0 | 7.0 | 0.00 | 0.01 | 0.00 | 68 | |
| 20260906113515 | 74 | 181 | 4.0 | 7.0 | 0.00 | 0.01 | 0.00 | 68 | |
| 20260906112515 | 74 | 181 | 5.0 | 7.0 | 0.00 | 0.01 | 0.00 | 68 | |
| 20260906111535 | 74 | 181 | 4.0 | 6.0 | 0.00 | 0.01 | 0.00 | 68 | |
| 20260906110515 | 74 | 181 | 4.0 | 5.0 | 0.00 | 0.01 | 0.00 | 69 | |
| 20260906105516 | 74 | 181 | 4.0 | 6.0 | 0.00 | 0.01 | 0.00 | 68 | |
| 20260906104515 | 75 | 181 | 4.0 | 5.0 | 0.00 | 0.01 | 0.00 | 66 | |
| 20260906103516 | 75 | 181 | 5.0 | 7.0 | 0.00 | 0.01 | 0.00 | 64 | |
| 20260906102515 | 76 | 181 | 2.0 | 4.0 | 0.00 | 0.01 | 0.00 | 62 | |
| 20260906101515 | 77 | 181 | 4.0 | 6.0 | 0.00 | 0.01 | 0.00 | 62 | |
| 20260906100537 | 77 | 181 | 4.0 | 6.0 | 0.00 | 0.01 | 0.00 | 61 | |
| 20260906095516 | 77 | 181 | 6.0 | 9.0 | 0.00 | 0.01 | 0.00 | 61 | |
| 20260906094535 | 77 | 181 | 6.0 | 10.0 | 0.00 | 0.01 | 0.00 | 60 | |
| 20260906093515 | 78 | 181 | 6.0 | 9.0 | 0.00 | 0.01 | 0.00 | 58 | |
| 20260906092515 | 78 | 181 | 5.0 | 8.0 | 0.00 | 0.01 | 0.00 | 58 | |
| 20260906091515 | 78 | 181 | 5.0 | 7.0 | 0.00 | 0.01 | 0.00 | 58 | |
| 20260906090516 | 78 | 181 | 5.0 | 8.0 | 0.00 | 0.01 | 0.00 | 58 | |
| 20260906085515 | 78 | 181 | 6.0 | 9.0 | 0.00 | 0.01 | 0.00 | 57 | |
| 20260906084515 | 79 | 181 | 4.0 | 7.0 | 0.00 | 0.01 | 0.00 | 56 | |
| 20260906083515 | 79 | 181 | 4.0 | 8.0 | 0.00 | 0.01 | 0.00 | 56 | |
| 20260906082515 | 79 | 181 | 5.0 | 9.0 | 0.00 | 0.01 | 0.00 | 57 | |
| 20260906081515 | 79 | 181 | 5.0 | 8.0 | 0.00 | 0.01 | 0.00 | 57 | |
| 20260906080515 | 79 | 181 | 5.0 | 8.0 | 0.00 | 0.01 | 0.00 | 57 | |
| 20260906075535 | 79 | 181 | 6.0 | 10.0 | 0.00 | 0.01 | 0.00 | 56 | |
| 20260906074515 | 80 | 181 | 6.0 | 10.0 | 0.00 | 0.01 | 0.00 | 54 | |
| 20260906073558 | 80 | 181 | 6.0 | 10.0 | 0.00 | 0.01 | 0.00 | 52 | |
| 20260906072516 | 81 | 181 | 7.0 | 11.0 | 0.00 | 0.01 | 0.00 | 51 | |
| 20260906071515 | 80 | 181 | 8.0 | 12.0 | 0.00 | 0.01 | 0.00 | 53 | |
| 20260906070536 | 79 | 181 | 7.0 | 11.0 | 0.00 | 0.01 | 0.00 | 57 | |
| 20260906065516 | 79 | 181 | 6.0 | 10.0 | 0.00 | 0.01 | 0.00 | 56 | |
| 20260906064516 | 80 | 181 | 8.0 | 12.0 | 0.00 | 0.01 | 0.00 | 55 | |
| 20260906063516 | 80 | 181 | 8.0 | 12.0 | 0.00 | 0.01 | 0.00 | 54 | |
| 20260906062515 | 82 | 181 | 7.0 | 11.0 | 0.00 | 0.01 | 0.00 | 50 | |
| 20260906061516 | 83 | 181 | 7.0 | 13.0 | 0.00 | 0.01 | 0.00 | 48 | |
| 20260906060516 | 83 | 181 | 9.0 | 14.0 | 0.00 | 0.01 | 0.00 | 48 | |
| 20260906055515 | 81 | 181 | 8.0 | 12.0 | 0.00 | 0.01 | 0.00 | 51 | |
| 20260906054515 | 80 | 181 | 8.0 | 13.0 | 0.00 | 0.01 | 0.00 | 56 | |
| 20260906053515 | 80 | 181 | 8.0 | 14.0 | 0.00 | 0.01 | 0.00 | 58 | |
| 20260906052516 | 80 | 181 | 9.0 | 15.0 | 0.00 | 0.01 | 0.00 | 57 | |
| 20260906051515 | 79 | 181 | 8.0 | 13.0 | 0.00 | 0.01 | 0.00 | 59 | |
| 20260906050515 | 78 | 181 | 6.0 | 8.0 | 0.00 | 0.01 | 0.00 | 61 | |
| 20260906045515 | 78 | 181 | 4.0 | 7.0 | 0.00 | 0.01 | 0.00 | 62 | |
| 20260906044515 | 78 | 181 | 7.0 | 10.0 | 0.00 | 0.01 | 0.00 | 60 | |
| 20260906043535 | 79 | 181 | 5.0 | 10.0 | 0.00 | 0.01 | 0.00 | 59 | |
| 20260906042516 | 79 | 181 | 6.0 | 10.0 | 0.00 | 0.01 | 0.00 | 57 | |
| 20260906041517 | 80 | 181 | 6.0 | 11.0 | 0.00 | 0.01 | 0.00 | 55 | |
| 20260906040516 | 79 | 181 | 6.0 | 9.0 | 0.00 | 0.01 | 0.00 | 55 | |
| 20260906035515 | 79 | 181 | 5.0 | 7.0 | 0.00 | 0.01 | 0.00 | 57 | |
| 20260906034515 | 78 | 181 | 4.0 | 7.0 | 0.00 | 0.01 | 0.00 | 60 | |
| 20260906033516 | 79 | 181 | 5.0 | 8.0 | 0.00 | 0.01 | 0.00 | 58 | |
| 20260906032515 | 79 | 181 | 4.0 | 8.0 | 0.00 | 0.01 | 0.00 | 57 | |
| 20260906031516 | 80 | 181 | 5.0 | 7.0 | 0.00 | 0.01 | 0.00 | 56 | |
| 20260906030515 | 80 | 181 | 6.0 | 8.0 | 0.00 | 0.01 | 0.00 | 55 | |
| 20260906025516 | 80 | 181 | 6.0 | 11.0 | 0.00 | 0.01 | 0.00 | 54 | |
| 20260906024515 | 80 | 181 | 6.0 | 10.0 | 0.00 | 0.01 | 0.00 | 55 | |
| 20260906023538 | 80 | 181 | 5.0 | 8.0 | 0.00 | 0.01 | 0.00 | 57 | |
| 20260906022515 | 80 | 181 | 5.0 | 8.0 | 0.00 | 0.01 | 0.00 | 58 | |
| 20260906021535 | 80 | 181 | 6.0 | 9.0 | 0.00 | 0.01 | 0.00 | 58 | |
| 20260906020515 | 81 | 181 | 7.0 | 10.0 | 0.00 | 0.01 | 0.00 | 57 | |
| 20260906015515 | 81 | 181 | 7.0 | 12.0 | 0.00 | 0.01 | 0.00 | 56 | |
| 20260906014515 | 81 | 181 | 8.0 | 14.0 | 0.00 | 0.01 | 0.00 | 57 | |
| 20260906013515 | 81 | 181 | 7.0 | 10.0 | 0.00 | 0.01 | 0.00 | 57 | |
| 20260906012536 | 81 | 181 | 7.0 | 11.0 | 0.00 | 0.01 | 0.00 | 57 | |
| 20260906011537 | 81 | 181 | 7.0 | 11.0 | 0.00 | 0.01 | 0.00 | 57 | |
| 20260906010516 | 81 | 181 | 7.0 | 11.0 | 0.00 | 0.01 | 0.00 | 57 | |
| 20260906005515 | 81 | 181 | 8.0 | 13.0 | 0.00 | 0.01 | 0.00 | 57 | |
| 20260906004515 | 81 | 181 | 8.0 | 15.0 | 0.00 | 0.01 | 0.00 | 60 | |
| 20260906003515 | 81 | 181 | 11.0 | 22.0 | 0.00 | 0.01 | 0.00 | 59 | |
| 20260906002515 | 83 | 181 | 12.0 | 18.0 | 0.00 | 0.01 | 0.00 | 55 | |
| 20260906001516 | 82 | 181 | 10.0 | 17.0 | 0.00 | 0.01 | 0.00 | 56 | |
| 20260906000515 | 83 | 181 | 13.0 | 27.0 | 0.00 | 0.01 | 0.00 | 54 | |
| 20260905235518 | 83 | 181 | 11.0 | 22.0 | 0.00 | 0.01 | 0.01 | 53 | |
| 20260905234515 | 84 | 181 | 12.0 | 24.0 | 0.00 | 0.01 | 0.01 | 53 | |
| 20260905233515 | 82 | 181 | 8.0 | 20.0 | 0.00 | 0.01 | 0.01 | 57 | |
| 20260905232516 | 80 | 181 | 12.0 | 20.0 | 0.00 | 0.01 | 0.01 | 62 | |
| 20260905231515 | 81 | 181 | 11.0 | 18.0 | 0.00 | 0.01 | 0.01 | 59 | |
| 20260905230515 | 81 | 181 | 10.0 | 21.0 | 0.00 | 0.01 | 0.01 | 57 | |
| 20260905225515 | 81 | 181 | 9.0 | 17.0 | 0.00 | 0.01 | 0.01 | 59 | |
| 20260905224515 | 79 | 181 | 12.0 | 22.0 | 0.00 | 0.01 | 0.01 | 64 | |
| 20260905223516 | 78 | 181 | 12.0 | 23.0 | 0.01 | 0.01 | 0.01 | 68 | |
| 20260905222535 | 80 | 181 | 12.0 | 24.0 | 0.01 | 0.01 | 0.01 | 66 | |
| 20260905221516 | 80 | 181 | 8.0 | 14.0 | 0.01 | 0.01 | 0.01 | 64 | |
| 20260905220515 | 78 | 181 | 9.0 | 14.0 | 0.01 | 0.01 | 0.01 | 67 | |
| 20260905215515 | 77 | 181 | 11.0 | 18.0 | 0.01 | 0.01 | 0.01 | 72 | |
| 20260905214515 | 79 | 181 | 8.0 | 17.0 | 0.01 | 0.01 | 0.01 | 68 | |
| 20260905213515 | 79 | 181 | 10.0 | 21.0 | 0.00 | 0.00 | 0.00 | 65 | |
| 20260905212515 | 83 | 181 | 8.0 | 19.0 | 0.00 | 0.00 | 0.00 | 59 | |
| 20260905211515 | 92 | 181 | 7.0 | 20.0 | 0.00 | 0.00 | 0.00 | 36 | |
| 20260905210515 | 93 | 181 | 6.0 | 10.0 | 0.00 | 0.00 | 0.00 | 32 | |
| 20260905205515 | 93 | 181 | 9.0 | 14.0 | 0.00 | 0.00 | 0.00 | 33 | |
| 20260905204516 | 92 | 0.0 | 0.0 | 0.00 | 0.00 | 0.00 | 39 | ||
| 20260905203535 | 94 | 181 | 6.0 | 19.0 | 0.00 | 0.00 | 0.00 | 35 | |
| 20260905202516 | 94 | 181 | 9.0 | 17.0 | 0.00 | 0.00 | 0.00 | 31 | |
| 20260905201515 | 95 | 181 | 8.0 | 13.0 | 0.00 | 0.00 | 0.00 | 30 | |
| 20260905200515 | 95 | 181 | 9.0 | 16.0 | 0.00 | 0.00 | 0.00 | 31 |